Location: Unspecified
(0.0000°N, 0.0000°E)
Time: 01:40:20
(UTC+00:00)

Diapason D-1A - Visible Passes

Search period start: 16 May 2026 00:00
Search period end: 26 May 2026 00:00
Orbit: 496 x 2296 km, 34.1° (Epoch: 15 May)

Date Brightness Start Highest point End Pass type
(mag) Time Alt. Az. Time Alt. Az. Time Alt. Az.
16 May 12.1 19:07:24 10° NW 19:12:20 13° NNW 19:16:57 10° N visible
18 May 12.2 18:24:18 10° NW 18:30:22 14° NNW 18:36:07 10° N visible
22 May 11.5 21:16:55 10° N 21:20:01 11° NNE 21:20:58 11° NNE visible
23 May 11.4 21:54:34 10° NNW 21:58:13 17° N 21:58:13 17° N visible
24 May 11.4 20:33:14 10° N 20:38:28 14° NNE 20:41:51 12° NE visible
24 May 11.5 22:33:31 10° NNW 22:35:29 15° NNW 22:35:29 15° NNW visible
25 May 11.9 19:12:30 10° N 19:14:29 10° N 19:16:25 10° NNE visible
25 May 11.1 21:11:40 10° NNW 21:19:07 22° NNE 21:19:07 22° NNE visible
